User: anonymous   Login
Location: Unspecified
(47.1700°N, 0.0000°E)
Time: 08:53:41
(UTC+00:00)
Language:

NO-84 - Orbit

View from above orbital plane
View from above orbital plane
View from above satellite
View from above satellite

Ground track
Ground track

The orbit data is extracted from the following two-line orbital elements,

1 40654U 15025D   19234.30647811  .00003663  00000 0  55117-4 0  7023
2 40654  54.9871 237.8362 0137405 131.4796 229.7946 15.47914053122459
Epoch (UTC): 22 August 2019 07:21:19
Eccentricity: 0.0137405
inclination: 54.9871°
perigee height: 329 km
apogee height: 516 km
right ascension of ascending node: 237.8362°
argument of perigee: 131.4796°
revolutions per day: 15.47914053
mean anomaly at epoch: 229.7946°
orbit number at epoch: 12245

The dashed part of the orbit path shows where the satellite is in the earth's shadow,  

DLR